Weather reports worldwide

Advertisment
Ryhill, United Kingdom (99162): temperature & dewpoint: 15.05.2019 15:00:00 - 21.05.2019 15:00:00 (BST)Ryhill, United Kingdom (99162): precipitation: 15.05.2019 15:00:00 - 21.05.2019 15:00:00 (BST)
Date & Time tt [°C] td [°C] rr [mm]
21.05.2019 15:00:00 - - -
21.05.2019 14:00:00 16,5 7,4 0,0
21.05.2019 13:00:00 17,0 4,8 0,0
21.05.2019 12:00:00 16,6 7,7 0,0
21.05.2019 11:00:00 15,6 7,7 0,0
21.05.2019 10:00:00 14,1 7,6 0,0
21.05.2019 09:00:00 13,0 7,9 0,0
21.05.2019 08:00:00 11,5 7,8 0,0
21.05.2019 07:00:00 10,0 8,0 0,0
21.05.2019 06:00:00 8,3 7,0 0,0
21.05.2019 05:00:00 7,9 6,8 0,0
21.05.2019 04:00:00 8,1 6,7 0,0
21.05.2019 03:00:00 8,3 6,8 0,0
21.05.2019 02:00:00 8,5 6,9 0,0
21.05.2019 01:00:00 8,6 7,0 0,0
21.05.2019 00:00:00 9,1 6,8 0,0
20.05.2019 23:00:00 9,6 6,3 0,0
20.05.2019 22:00:00 11,0 6,7 0,0
20.05.2019 21:00:00 13,0 6,5 0,0
20.05.2019 20:00:00 14,6 6,5 0,0
20.05.2019 19:00:00 16,9 7,2 0,0
20.05.2019 18:00:00 17,7 7,4 0,0
20.05.2019 17:00:00 17,2 8,1 0,0
20.05.2019 16:00:00 17,8 8,9 0,0
20.05.2019 15:00:00 16,9 8,5 0,0
20.05.2019 14:00:00 16,5 8,3 0,0
20.05.2019 13:00:00 16,5 8,3 0,0
20.05.2019 12:00:00 15,3 8,4 0,0
20.05.2019 11:00:00 15,0 8,3 0,0
20.05.2019 10:00:00 14,9 8,5 0,0
20.05.2019 09:00:00 13,4 9,3 0,0
20.05.2019 08:00:00 11,6 9,3 0,0
20.05.2019 07:00:00 9,3 8,1 0,0
20.05.2019 06:00:00 7,9 7,3 0,0
20.05.2019 05:00:00 7,8 7,2 0,0
20.05.2019 04:00:00 7,4 6,8 0,0
20.05.2019 03:00:00 7,7 6,7 0,0
20.05.2019 02:00:00 8,3 7,3 0,0
20.05.2019 01:00:00 8,7 7,3 0,0
20.05.2019 00:00:00 9,4 7,6 0,0
19.05.2019 23:00:00 9,9 7,4 0,0
19.05.2019 22:00:00 10,9 7,3 0,0
19.05.2019 21:00:00 12,4 7,7 0,0
19.05.2019 20:00:00 14,0 8,3 0,0
19.05.2019 19:00:00 14,6 8,2 0,0
19.05.2019 18:00:00 15,1 8,3 0,0
19.05.2019 17:00:00 15,1 8,9 0,0
19.05.2019 16:00:00 15,2 9,0 0,0
19.05.2019 15:00:00 15,9 8,9 0,0
19.05.2019 14:00:00 16,2 9,4 0,0
19.05.2019 13:00:00 16,7 10,0 0,0
19.05.2019 12:00:00 15,7 9,0 0,0
19.05.2019 11:00:00 14,7 9,2 0,0
19.05.2019 10:00:00 14,0 9,8 0,0
19.05.2019 09:00:00 12,1 9,0 0,0
19.05.2019 08:00:00 11,2 9,0 0,0
19.05.2019 07:00:00 10,3 8,7 0,0
19.05.2019 06:00:00 9,5 8,5 0,0
19.05.2019 05:00:00 9,3 8,3 0,0
19.05.2019 04:00:00 9,4 8,3 0,0
19.05.2019 03:00:00 10,0 8,3 0,0
19.05.2019 02:00:00 10,6 8,4 0,0
19.05.2019 01:00:00 10,9 8,6 0,0
19.05.2019 00:00:00 10,6 8,4 0,0
18.05.2019 23:00:00 10,6 8,2 0,0
18.05.2019 22:00:00 11,2 8,3 0,0
18.05.2019 21:00:00 12,0 8,5 0,0
18.05.2019 20:00:00 13,3 7,8 0,0
18.05.2019 19:00:00 13,7 8,0 0,0
18.05.2019 18:00:00 14,0 9,2 0,0
18.05.2019 17:00:00 14,2 9,5 0,0
18.05.2019 16:00:00 13,9 8,8 0,0
18.05.2019 15:00:00 13,8 8,4 0,0
18.05.2019 14:00:00 13,8 9,1 0,0
18.05.2019 13:00:00 13,7 9,4 0,0
18.05.2019 12:00:00 12,7 9,7 0,0
18.05.2019 11:00:00 11,9 8,9 0,0
18.05.2019 10:00:00 11,2 9,0 0,0
18.05.2019 09:00:00 10,3 9,2 0,0
18.05.2019 08:00:00 9,8 9,0 0,0
18.05.2019 07:00:00 9,5 9,0 0,0
18.05.2019 06:00:00 9,3 8,9 0,0
18.05.2019 05:00:00 9,0 8,6 0,0
18.05.2019 04:00:00 9,2 8,9 0,0
18.05.2019 03:00:00 9,2 9,0 0,0
18.05.2019 02:00:00 9,1 8,8 0,2
18.05.2019 01:00:00 9,0 8,6 0,2
18.05.2019 00:00:00 9,0 8,3 0,0
17.05.2019 23:00:00 9,5 7,8 0,0
17.05.2019 22:00:00 10,2 7,5 0,0
17.05.2019 21:00:00 11,1 7,5 0,0
17.05.2019 20:00:00 11,9 7,1 0,0
17.05.2019 19:00:00 13,2 7,6 0,0
17.05.2019 18:00:00 14,2 7,5 0,0
17.05.2019 17:00:00 15,7 7,8 0,0
17.05.2019 16:00:00 17,7 8,1 0,0
17.05.2019 15:00:00 16,6 6,1 0,0
17.05.2019 14:00:00 16,6 8,3 0,0
17.05.2019 13:00:00 16,1 9,0 0,0
17.05.2019 12:00:00 15,1 8,6 0,0
17.05.2019 11:00:00 14,0 8,9 0,0
17.05.2019 10:00:00 13,3 8,7 0,0
17.05.2019 09:00:00 10,1 7,1 0,0
17.05.2019 08:00:00 9,3 6,7 0,0
17.05.2019 07:00:00 8,7 6,8 0,0
17.05.2019 06:00:00 8,6 7,6 0,2
17.05.2019 05:00:00 8,6 7,9 0,4
17.05.2019 04:00:00 8,7 7,5 0,2
17.05.2019 03:00:00 8,8 7,4 0,0
17.05.2019 02:00:00 8,8 6,9 0,0
17.05.2019 01:00:00 8,0 6,0 0,0
17.05.2019 00:00:00 9,3 5,6 0,0
16.05.2019 23:00:00 10,3 4,9 0,0
16.05.2019 22:00:00 10,5 4,5 0,0
16.05.2019 21:00:00 11,1 3,3 0,0
16.05.2019 20:00:00 12,0 3,1 0,0
16.05.2019 19:00:00 13,2 2,4 0,0
16.05.2019 18:00:00 14,2 2,9 0,0
16.05.2019 17:00:00 14,6 4,4 0,0
16.05.2019 16:00:00 15,3 4,3 0,0
16.05.2019 15:00:00 15,2 5,3 0,0
16.05.2019 14:00:00 14,4 6,0 0,0
16.05.2019 13:00:00 15,2 7,4 0,0
16.05.2019 12:00:00 14,5 5,9 0,0
16.05.2019 11:00:00 13,1 6,8 0,0
16.05.2019 10:00:00 10,7 9,5 0,0
16.05.2019 09:00:00 7,7 7,6 0,0
16.05.2019 08:00:00 6,3 6,3 0,0
16.05.2019 07:00:00 5,8 5,7 0,0
16.05.2019 06:00:00 5,2 5,1 0,0
16.05.2019 05:00:00 5,0 4,8 0,0
16.05.2019 04:00:00 4,3 3,9 0,0
16.05.2019 03:00:00 5,1 4,6 0,0
16.05.2019 02:00:00 5,4 4,8 0,0
16.05.2019 01:00:00 5,9 4,7 0,0
16.05.2019 00:00:00 6,7 5,2 0,0
15.05.2019 23:00:00 8,1 5,4 0,0
15.05.2019 22:00:00 9,8 4,9 0,0
15.05.2019 21:00:00 11,4 4,8 0,0
15.05.2019 20:00:00 13,8 6,1 0,0
15.05.2019 19:00:00 15,7 7,4 0,0
15.05.2019 18:00:00 17,7 8,8 0,0
15.05.2019 17:00:00 18,3 9,2 0,0
15.05.2019 16:00:00 18,1 8,6 0,0
15.05.2019 15:00:00 18,2 7,6 0,0

tt = temperature
td = dewpoint
rr = precipitation

Next stations